EW3598 Weather Reports


time (UTC)temp
C
wind
direction
speed
KPH
gust
KPH
rain 1hr
cm
rain 24hr
cm
rain mn
cm
humidity
%
barometer
mb
20260831233032 -17 318 0.0 0.0 0.00 0.00 0.00 1016.6
20260831231516 -17 318 0.0 0.0 0.00 0.00 0.00 1016.5
20260831230007 -17 318 0.0 1.6 0.00 0.00 0.00 1016.2
20260831224600 -17 318 0.0 0.0 0.00 0.00 0.00 1016.2
20260831223107 -17 347 1.6 6.4 0.00 0.00 0.00 1016.2
20260831221555 -17 202 0.0 6.4 0.00 0.00 0.00 1016.0
20260831220044 -17 188 0.0 4.8 0.00 0.00 0.00 1015.8
20260831214544 -17 204 3.2 12.9 0.00 0.00 0.00 1015.3
20260831213039 -17 200 0.0 4.8 0.00 0.00 0.00 1016.0
20260831211530 -17 215 0.0 4.8 0.00 0.00 0.00 1016.5
20260831210024 -17 214 0.0 0.0 0.00 0.00 0.00 1016.5
20260831204520 -17 214 0.0 0.0 0.00 0.00 0.00 1016.8
20260831203017 -17 214 0.0 0.0 0.00 0.00 0.00 1017.0
20260831201522 -17 214 0.0 4.8 0.00 0.00 0.00 1017.2
20260831200011 -17 317 0.0 4.8 0.00 0.00 0.00 1017.5
20260831194505 -17 228 3.2 14.5 0.00 0.00 0.00 1017.9
20260831193004 -17 272 1.6 6.4 0.00 0.00 0.00 1018.1
20260831191602 -17 257 1.6 9.7 0.00 0.00 0.00 1018.2
20260831190032 -17 270 1.6 11.3 0.00 0.00 0.00 1018.2
20260831184532 -17 249 0.0 3.2 0.00 0.00 0.00 1018.2
20260831183032 -17 249 0.0 4.8 0.00 0.00 0.00 1018.4
20260831181529 -17 262 3.2 14.5 0.00 0.00 0.00 1018.6
20260831180027 -17 187 3.2 9.7 0.00 0.00 0.00 1018.7
20260831174529 -17 231 3.2 16.1 0.00 0.00 0.00 1018.7
20260831173023 -17 178 3.2 11.3 0.00 0.00 0.00 1018.9
20260831171519 -17 192 1.6 14.5 0.00 0.00 0.00 1018.9
20260831170032 -17 189 3.2 11.3 0.00 0.00 0.00 1018.9
20260831164609 -17 178 4.8 11.3 0.00 0.00 0.00 1019.0
20260831163002 -17 185 3.2 9.7 0.00 0.00 0.00 1019.1
20260831161558 -17 219 1.6 12.9 0.00 0.00 0.00 1019.2
20260831160053 -17 170 1.6 11.3 0.00 0.00 0.00 1019.2
20260831154549 -17 348 1.6 9.7 0.00 0.00 0.00 1019.0
20260831153042 -17 215 4.8 12.9 0.00 0.00 0.00 1019.0
20260831151539 -17 234 1.6 6.4 0.00 0.00 0.00 1019.0
20260831150034 -17 232 0.0 6.4 0.00 0.00 0.00 1018.9
20260831144529 -17 178 0.0 3.2 0.00 0.00 0.00 1018.8
20260831143058 -17 200 0.0 0.0 0.00 0.00 0.00 1018.7
20260831141550 -17 199 0.0 1.6 0.00 0.00 0.00 1018.6
20260831140052 -17 199 0.0 1.6 0.00 0.00 0.00 1018.6
20260831134542 -17 189 1.6 4.8 0.00 0.00 0.00 1018.6
20260831133040 -17 194 1.6 4.8 0.00 0.00 0.00 1018.7
20260831131530 -17 207 0.0 3.2 0.00 0.00 0.00 1018.7
20260831130101 -17 214 0.0 4.8 0.00 0.00 0.00 1018.7
20260831124604 -17 223 0.0 1.6 0.00 0.00 0.00 1018.6
20260831123046 -17 223 0.0 0.0 0.00 0.00 0.00 1018.6
20260831121545 -17 223 0.0 0.0 0.00 0.00 0.00 1018.5
20260831120038 -17 224 0.0 0.0 0.00 0.00 0.00 1018.4
20260831114537 -17 224 0.0 0.0 0.00 0.00 0.00 1018.3
20260831113035 -17 223 0.0 0.0 0.00 0.00 0.00 1018.3
20260831111538 -17 223 0.0 0.0 0.00 0.00 0.00 1018.3
20260831110034 -17 223 0.0 0.0 0.00 0.00 0.00 1018.0
20260831104540 -17 224 0.0 0.0 0.00 0.00 0.00 1017.8
20260831103031 -17 223 0.0 0.0 0.00 0.00 0.00 1017.9
20260831101531 -17 223 0.0 0.0 0.00 0.00 0.00 1017.7
20260831100031 -17 223 0.0 0.0 0.00 0.00 0.00 1017.7
20260831094532 -17 223 0.0 0.0 0.00 0.00 0.00 1017.6
20260831093053 -17 224 0.0 0.0 0.00 0.00 0.00 1017.8
20260831091548 -17 223 0.0 0.0 0.00 0.00 0.00 1017.9
20260831090042 -17 223 0.0 0.0 0.00 0.00 0.00 1017.8
20260831084542 -17 223 0.0 0.0 0.00 0.00 0.00 1017.6
20260831083044 -17 223 0.0 0.0 0.00 0.00 0.00 1017.5
20260831081543 -17 223 0.0 0.0 0.00 0.00 0.00 1017.6
20260831080051 -17 223 0.0 0.0 0.00 0.00 0.00 1017.3
20260831074529 -17 223 0.0 0.0 0.00 0.00 0.00 1017.4
20260831073026 -17 223 0.0 0.0 0.00 0.00 0.00 1017.3
20260831071520 -17 223 0.0 0.0 0.00 0.00 0.00 1017.5
20260831070013 -17 223 0.0 0.0 0.00 0.00 0.00 1017.5
20260831064508 -17 223 0.0 0.0 0.00 0.00 0.00 1017.7
20260831063004 -17 223 0.0 0.0 0.00 0.00 0.00 1017.7
20260831061600 -17 223 0.0 0.0 0.00 0.00 0.00 1017.8
20260831060055 -17 223 0.0 0.0 0.00 0.00 0.00 1017.9
20260831054551 -17 223 0.0 0.0 0.00 0.00 0.00 1018.1
20260831053051 -17 223 0.0 0.0 0.00 0.00 0.00 1018.2
20260831051553 -17 223 0.0 0.0 0.00 0.00 0.00 1018.3
20260831050050 -17 223 0.0 0.0 0.00 0.00 0.00 1018.2
20260831044521 -17 224 0.0 0.0 0.00 0.00 0.00 1018.2
20260831043016 -17 224 0.0 0.0 0.00 0.00 0.00 1018.3
20260831041509 -17 223 0.0 0.0 0.00 0.00 0.00 1018.3
20260831040005 -17 223 0.0 0.0 0.00 0.00 0.00 1018.4
20260831034604 -17 223 0.0 0.0 0.00 0.00 0.00 1018.2
20260831033100 -17 223 0.0 0.0 0.00 0.00 0.00 1018.3
20260831031549 -17 223 0.0 0.0 0.00 0.00 0.00 1018.3
20260831030047 -17 223 0.0 0.0 0.00 0.00 0.00 1018.2
20260831024542 -17 224 0.0 0.0 0.00 0.00 0.00 1018.2
20260831023037 -17 223 0.0 0.0 0.00 0.00 0.00 1018.3
20260831021537 -17 223 0.0 0.0 0.00 0.00 0.00 1018.2
20260831020028 -17 224 0.0 0.0 0.00 0.00 0.00 1018.2
20260831014526 -17 223 0.0 0.0 0.00 0.00 0.00 1018.2
20260831013025 -17 223 0.0 0.0 0.00 0.00 0.00 1018.2
20260831011515 -17 223 0.0 0.0 0.00 0.00 0.00 1018.2
20260831010015 -17 224 0.0 0.0 0.00 0.00 0.00 1017.9
20260831004503 -17 223 0.0 0.0 0.00 0.00 0.00 1017.8
20260831003059 -17 223 0.0 0.0 0.00 0.00 0.00 1017.7
20260831001603 -17 223 0.0 1.6 0.00 0.00 0.00 1017.7
20260831000048 -17 223 0.0 0.0 0.00 0.00 0.00 1017.6
20260830234544 -17 223 0.0 0.0 0.00 0.00 0.00 1017.6